Home   Weather   Ennepetal   Past weeks

Flag for Germany Past Weather in Ennepetal, North Rhine-Westphalia, Germany — Yesterday and Last 2 Weeks

Now
63 °F

Drizzle. Partly sunny.


Feels Like: 63 °F
Forecast: 54 / 64 °F
Wind: 8 mph from Southwest

Location: Dortmund / Wickede

Current Time: Jun 29, 2017 at 11:06:12 am

Latest Report: Jun 29, 2017 at 10:20 am


Visibility: N/A

Pressure: 29.42 "Hg

Humidity: 83%

Dew Point: 57 °F

Location of EnnepetalLocation

Past Weather in Ennepetal — Graph

°F

Ennepetal Temperature Yesterday

Maximum temperature yesterday: 72 °F (at 3:20 pm)
Minimum temperature yesterday: 61 °F (at 5:20 am)
Average temperature yesterday: 66 °F

High & Low Weather Summary for the Past Weeks

 TemperatureHumidityPressure
High91 °F (Jun 22, 1:20 pm)94% (Jun 25, 5:20 am)30.30 "Hg (Jun 25, 5:20 am)
Low52 °F (Jun 17, 5:20 am)27% (Jun 19, 2:50 pm)29.39 "Hg (Jun 29, 5:20 am)
Average68 °F60%29.96 "Hg
* Reported Jun 14 9:20 am — Jun 29 9:20 am, Ennepetal. Weather by CustomWeather, © 2017

Note: Actual official high and low records may vary slightly from our data, if they occured in-between our weather recording intervals... More about our weather records

Advertising

Ennepetal Weather History for the Previous 24 Hours

Scroll right to see more
 ConditionsComfort  
Time TempWeatherWind HumidityBarometerVisibility
9:20 am
Thu, Jun 29
63 °FScattered clouds.14 mph77%29.42 "HgN/A
8:50 am63 °FScattered clouds.12 mph77%29.42 "HgN/A
8:20 am63 °FScattered clouds.14 mph83%29.39 "HgN/A
7:50 am63 °FScattered clouds.9 mph83%29.39 "HgN/A
7:20 am63 °FScattered clouds.9 mph83%29.39 "HgN/A
6:50 am61 °FScattered clouds.8 mph83%29.39 "HgN/A
6:20 am61 °FScattered clouds.8 mph83%29.39 "HgN/A
5:50 am61 °FSunny.9 mph83%29.39 "Hg10 mi
5:20 am59 °FSunny.8 mph88%29.39 "Hg10 mi
9:50 pm
Wed, Jun 28
63 °FClear.5 mph83%29.42 "Hg10 mi
9:20 pm64 °FSunny.3 mph78%29.42 "Hg10 mi
8:50 pm64 °FPassing clouds.5 mph78%29.42 "HgN/A
8:20 pm66 °FPartly sunny.8 mph73%29.42 "HgN/A
7:50 pm64 °FPartly sunny.6 mph78%29.42 "HgN/A
7:20 pm64 °FScattered clouds.7 mph83%29.42 "HgN/A
6:50 pm64 °FBroken clouds.9 mph78%29.42 "HgN/A
6:20 pm66 °FBroken clouds.10 mph73%29.42 "HgN/A
5:50 pm66 °FPartly sunny.14 mph73%29.42 "HgN/A
5:20 pm64 °FScattered showers. Partly sunny.13 mph78%29.42 "HgN/A
4:50 pm64 °FScattered showers. Broken clouds.15 mph78%29.42 "HgN/A
4:20 pm64 °FScattered showers. Partly sunny.18 mph83%29.42 "Hg5 mi
3:50 pm68 °FLight rain. Partly sunny.13 mph64%29.42 "Hg4 mi
3:20 pm72 °FPassing clouds.8 mph65%29.42 "HgN/A
2:50 pm70 °FScattered clouds.8 mph69%29.42 "HgN/A
2:20 pm68 °FScattered clouds.9 mph73%29.42 "HgN/A
1:50 pm68 °FScattered clouds.10 mph73%29.45 "HgN/A
1:20 pm68 °FScattered clouds.10 mph73%29.45 "HgN/A
12:50 pm68 °FScattered showers. Scattered clouds.7 mph73%29.45 "HgN/A
12:20 pm66 °FPartly sunny.8 mph83%29.45 "HgN/A
11:50 am68 °FPartly sunny.8 mph73%29.45 "HgN/A
11:20 am70 °FScattered clouds.12 mph64%29.45 "HgN/A
Weather by CustomWeather, © 2017

See weather overviewHow to use our weather pages